Wind_Speed
30 31 31 31 32 33 33 34 35 36 37 38 38 38 39 39 40 41 42 43 43 44 45 45 46 46 45 44 45 45 45 44 44 44 43 43 42 42 42 42 42 42 42 42
31 31 31 32 33 34 34 34 35 36 36 38 39 39 39 40 42 42 43 43 44 44 44 46 46 47 46 46 46 46 46 46 46 45 44 44 44 44 44 44 43 44 43 43
31 31 31 32 33 34 35 35 35 35 36 37 39 40 39 40 42 43 43 44 43 44 44 45 45 45 46 46 46 46 47 46 47 47 46 46 47 47 47 47 46 46 46 46
31 31 31 32 33 34 35 35 35 36 37 37 38 40 39 39 40 42 42 42 42 42 43 44 44 45 45 46 47 47 46 46 47 47 47 47 47 47 48 48 48 47 47 47
31 31 31 33 33 34 35 35 36 36 37 38 37 38 37 37 38 39 40 41 42 42 42 43 44 44 44 45 46 47 47 47 47 47 47 47 47 48 48 48 49 48 48 48
31 31 32 32 33 34 34 35 35 35 36 37 35 36 36 35 35 36 38 40 41 42 43 43 44 45 45 45 44 45 46 47 47 48 47 47 47 47 48 48 48 49 49 49
31 32 32 32 32 33 33 33 34 35 35 36 34 35 35 34 34 35 36 38 39 40 41 42 43 44 45 45 46 45 46 47 47 48 48 48 48 48 49 49 50 50 49 49
31 31 32 32 32 31 32 33 34 35 35 35 34 35 34 34 33 33 34 35 37 38 39 40 42 43 44 45 46 46 46 47 47 48 49 49 49 50 50 49 50 50 50 50
31 31 31 32 32 31 31 32 33 34 35 35 34 34 33 33 33 33 33 34 35 36 38 39 40 42 43 44 44 46 47 48 48 49 49 49 50 50 50 50 50 50 51 51
30 30 30 31 32 32 32 31 32 34 35 35 34 33 32 32 32 32 33 33 33 34 36 38 39 41 42 43 43 45 47 47 47 47 48 48 49 49 49 49 50 50 50 50
28 29 30 30 31 31 31 31 32 34 35 35 35 33 32 31 31 32 32 32 32 33 34 36 37 39 41 42 43 44 45 45 45 45 47 47 48 48 48 49 50 50 51 51
27 29 29 29 30 31 31 31 32 33 34 36 36 33 31 31 31 32 32 32 33 34 34 35 35 37 38 40 40 41 42 43 43 44 44 45 46 47 48 49 50 50 51 51
28 29 28 28 29 30 31 31 32 33 35 35 35 33 31 31 31 32 33 32 32 33 33 34 35 36 36 37 38 39 39 41 42 42 43 44 44 46 47 48 49 50 50 51
27 28 28 28 29 30 30 30 31 33 35 35 34 33 31 31 32 32 32 33 33 32 33 33 34 34 35 35 36 37 38 39 40 42 43 43 44 45 46 47 48 49 50 51
26 27 28 28 28 28 29 29 30 32 33 34 33 33 31 32 32 32 32 32 33 33 33 33 33 34 34 35 36 37 38 38 39 40 42 43 43 44 45 46 47 48 49 50
26 27 27 28 28 29 29 29 30 30 31 32 33 32 31 32 32 32 32 32 32 33 33 33 33 34 34 34 35 37 37 38 38 39 40 41 42 43 44 45 46 47 48 49
26 26 28 28 28 29 29 28 29 30 30 32 32 31 31 32 32 32 32 32 32 32 32 32 32 33 34 34 35 35 36 37 37 38 40 41 42 42 43 43 44 45 46 46
25 26 27 27 27 28 27 27 28 29 30 32 32 31 31 31 31 31 32 32 32 32 32 32 32 33 34 34 34 35 35 35 36 38 39 40 41 42 43 43 44 44 44 45
25 26 27 28 28 27 25 25 26 28 29 30 31 31 31 31 31 31 32 32 33 33 33 32 32 32 33 33 33 34 35 35 36 37 38 39 40 40 41 42 42 42 43 43
27 27 27 27 28 27 25 25 26 27 27 27 29 30 30 31 31 31 32 32 33 33 33 32 32 32 32 32 32 33 33 34 34 35 36 37 38 39 39 39 40 41 41 41
26 27 27 27 27 26 26 27 27 27 27 27 28 29 29 30 30 30 31 31 31 31 31 31 31 31 32 31 32 32 32 33 33 34 34 35 36 36 37 37 38 39 39 39
26 27 27 27 27 25 26 27 27 27 28 28 28 28 29 29 30 30 30 30 31 31 31 31 31 31 32 31 31 32 32 32 33 33 33 33 34 34 35 35 36 36 37 37
25 26 26 26 26 26 26 26 27 28 28 29 29 28 28 29 29 30 30 30 31 31 31 30 30 30 31 31 31 31 31 31 32 32 32 32 32 32 33 34 34 34 34 34
25 25 26 25 25 26 26 27 27 28 28 28 28 29 29 29 29 28 28 29 29 30 30 29 30 30 30 31 30 30 30 30 30 30 30 31 31 32 32 33 33 33 33 33
24 25 25 25 26 27 27 28 28 28 28 28 28 29 29 29 28 28 27 27 28 29 29 30 30 30 30 30 30 30 30 30 30 30 29 30 30 31 31 31 31 31 31 32
23 24 25 25 26 28 28 28 28 28 28 28 28 29 29 29 29 28 28 27 27 28 28 29 30 30 30 30 30 30 30 30 30 29 30 30 30 30 30 30 30 30 31 30
Wind_Direction
250 250 251 252 253 254 253 254 254 253 253 253 253 254 253 252 252 252 252 252 253 253 253 254 254 255 256 256 254 253 254 254 255 256 257 257 257 258 258 258 258 258 259 259
251 250 251 251 252 254 255 256 256 256 256 256 256 256 255 254 254 253 253 253 254 255 255 255 254 254 255 255 254 254 254 253 254 255 256 256 256 257 258 258 259 259 259 259
253 252 251 252 253 254 255 258 258 258 259 259 259 257 256 255 255 254 254 254 254 255 256 255 254 255 256 255 254 254 254 254 255 255 255 256 257 257 258 258 258 259 259 259
254 254 252 253 255 256 257 259 260 260 261 261 261 261 258 258 256 255 254 254 255 256 256 256 255 255 256 256 254 254 255 255 256 255 255 255 256 257 258 259 259 259 260 260
255 255 255 254 255 256 258 259 261 262 262 262 262 263 260 259 258 257 256 256 257 257 257 256 256 256 256 256 255 255 254 255 255 256 256 256 256 257 258 259 259 259 260 260
255 256 256 256 256 256 257 259 261 261 262 262 262 263 262 261 262 261 259 259 259 259 258 257 256 255 256 255 255 255 255 255 255 256 257 257 257 257 257 258 259 260 260 260
255 256 256 257 257 256 256 258 260 261 261 262 262 263 264 264 264 264 263 261 260 259 258 258 257 256 256 256 256 256 255 255 255 256 257 258 259 259 259 259 260 260 260 260
259 258 257 257 257 257 257 258 259 262 263 264 263 263 265 265 265 265 264 263 261 260 259 259 258 258 258 257 257 255 255 256 256 257 258 258 259 259 260 259 260 260 260 260
263 262 258 257 256 258 258 257 259 261 264 265 265 265 266 267 267 267 266 265 264 263 262 261 261 260 259 259 259 258 257 257 257 257 258 260 260 260 260 260 260 260 261 261
264 264 261 259 257 257 258 258 259 260 263 266 267 267 268 268 268 267 266 265 264 265 264 264 264 262 262 261 261 260 260 260 259 259 258 259 260 260 260 260 261 261 261 262
264 264 263 261 259 258 257 257 259 260 262 265 268 270 269 271 270 269 267 266 266 266 266 265 264 264 264 264 263 262 261 261 261 261 262 261 261 260 260 261 263 263 262 263
264 265 263 262 259 258 258 259 259 260 262 264 267 270 270 271 270 269 268 267 267 268 268 267 266 264 265 265 265 263 262 261 262 263 263 263 263 262 263 264 265 265 265 264
265 265 264 263 261 260 259 260 260 260 261 263 266 270 271 271 271 270 269 268 269 269 269 269 267 266 266 265 265 264 264 263 263 263 264 265 266 266 266 267 267 267 266 265
267 265 263 264 264 263 261 261 261 261 262 264 267 270 270 271 271 270 270 270 270 270 270 269 267 267 266 265 264 264 265 265 264 264 264 266 267 268 268 268 268 267 267 267
265 265 264 264 264 265 264 262 262 263 264 266 267 269 270 270 271 271 271 271 271 270 270 270 269 268 266 265 264 265 265 266 266 265 266 267 268 269 269 269 268 268 268 268
264 265 265 264 265 266 267 264 265 265 266 268 268 269 270 270 271 271 271 270 271 271 270 269 269 268 267 266 265 266 266 266 267 267 267 268 269 270 270 270 270 269 269 269
265 267 267 268 268 269 268 268 268 267 268 268 269 269 268 269 271 271 272 270 270 271 270 270 270 269 268 267 266 266 267 268 269 269 269 270 271 271 272 271 271 270 270 270
266 268 269 270 270 270 272 271 270 269 269 270 269 268 269 270 270 271 271 269 270 270 270 271 271 270 270 269 268 267 267 268 270 271 272 273 273 273 273 272 272 271 271 271
266 268 270 271 272 272 273 274 272 272 270 270 270 269 270 270 271 271 272 271 270 270 271 271 271 271 271 271 269 269 269 270 272 272 274 274 274 274 274 273 273 273 274 274
267 268 270 272 273 274 275 275 274 274 272 270 270 271 272 272 273 273 273 272 271 270 271 271 271 272 272 272 270 270 271 272 274 274 275 276 276 276 275 275 275 275 275 275
269 267 269 271 273 274 276 276 276 275 275 273 273 274 275 275 275 275 273 272 271 271 271 271 271 271 273 273 272 271 272 273 275 277 277 277 276 276 277 277 278 278 277 277
269 269 271 272 273 276 277 277 276 277 277 276 276 277 277 277 276 275 274 273 271 271 271 272 272 273 273 274 273 273 274 275 277 278 278 278 278 278 279 279 280 280 280 279
270 271 272 272 274 276 278 278 277 277 278 278 277 277 277 278 278 278 276 274 272 271 271 271 273 274 274 274 274 274 275 277 278 278 278 278 280 280 281 281 281 281 281 281
271 271 271 272 274 276 277 277 279 280 280 279 278 278 277 279 280 279 277 275 273 272 271 272 273 274 274 274 274 275 276 278 278 279 279 280 281 281 282 283 282 282 282 281
271 270 272 273 275 276 276 277 279 281 282 281 279 279 279 279 279 278 277 276 274 272 272 272 273 273 274 274 275 275 277 277 278 279 281 282 283 283 282 282 282 282 282 283
271 272 274 275 276 277 276 276 278 281 283 283 280 279 279 279 279 278 277 277 275 274 273 273 273 273 274 275 276 277 277 278 278 279 281 283 283 284 283 283 283 283 284 284
Height
5679 5682 5684 5686 5688 5689 5691 5692 5694 5696 5697 5699 5701 5703 5706 5707 5709 5711 5713 5715 5717 5719 5722 5723 5725 5727 5729 5730 5732 5733 5735 5737 5739 5741 5743 5744 5746 5748 5749 5750 5752 5753 5755 5756
5673 5675 5677 5678 5679 5681 5683 5684 5686 5687 5688 5690 5691 5693 5696 5697 5699 5701 5703 5705 5707 5709 5711 5713 5714 5716 5718 5720 5721 5723 5725 5727 5729 5731 5732 5734 5735 5737 5739 5740 5741 5743 5745 5746
5665 5668 5669 5670 5672 5673 5675 5677 5678 5679 5679 5680 5681 5683 5686 5688 5689 5691 5692 5694 5696 5698 5700 5701 5703 5705 5707 5708 5710 5712 5714 5716 5718 5719 5721 5722 5724 5726 5727 5729 5731 5732 5734 5735
5657 5659 5661 5662 5664 5665 5667 5669 5669 5669 5670 5670 5672 5672 5677 5678 5679 5680 5682 5684 5686 5687 5689 5690 5692 5694 5696 5697 5698 5700 5702 5704 5706 5708 5709 5711 5713 5714 5716 5718 5719 5721 5722 5724
5650 5652 5653 5654 5656 5657 5659 5660 5660 5661 5660 5661 5662 5662 5667 5668 5669 5671 5673 5674 5675 5677 5678 5679 5681 5683 5684 5685 5687 5689 5691 5693 5694 5696 5698 5699 5701 5703 5704 5706 5708 5709 5711 5712
5643 5644 5645 5647 5648 5649 5650 5651 5651 5651 5651 5652 5655 5654 5657 5659 5661 5662 5663 5664 5665 5666 5667 5668 5670 5671 5673 5674 5676 5677 5679 5681 5682 5684 5686 5688 5690 5692 5693 5695 5695 5697 5699 5700
5635 5636 5637 5639 5640 5641 5642 5643 5643 5642 5642 5644 5647 5646 5649 5651 5652 5652 5653 5654 5654 5655 5656 5657 5658 5660 5662 5663 5664 5666 5667 5669 5671 5672 5674 5676 5678 5680 5681 5683 5684 5685 5687 5688
5628 5630 5631 5631 5632 5633 5634 5635 5636 5635 5635 5637 5638 5638 5642 5642 5643 5643 5643 5644 5644 5645 5646 5647 5648 5649 5650 5651 5653 5654 5656 5657 5659 5661 5663 5664 5666 5667 5669 5670 5672 5673 5674 5675
5620 5622 5623 5623 5624 5625 5625 5626 5627 5627 5627 5628 5629 5631 5634 5634 5634 5634 5635 5635 5635 5636 5636 5637 5638 5638 5639 5640 5641 5643 5644 5646 5648 5649 5651 5652 5653 5655 5656 5658 5659 5660 5661 5663
5612 5613 5615 5615 5616 5616 5618 5619 5619 5619 5619 5619 5621 5624 5626 5626 5626 5626 5626 5626 5626 5626 5626 5627 5627 5628 5629 5630 5631 5631 5632 5634 5635 5637 5639 5640 5641 5642 5644 5645 5646 5648 5649 5650
5605 5606 5607 5608 5608 5609 5611 5611 5611 5611 5611 5612 5613 5619 5618 5618 5617 5617 5617 5617 5617 5617 5617 5617 5617 5617 5618 5619 5620 5620 5622 5623 5624 5625 5627 5628 5629 5630 5631 5632 5634 5634 5635 5636
5597 5598 5599 5600 5601 5601 5602 5603 5604 5604 5604 5604 5605 5611 5610 5609 5609 5608 5608 5608 5608 5608 5608 5608 5608 5608 5608 5609 5609 5610 5610 5612 5613 5614 5615 5616 5617 5618 5619 5620 5621 5621 5622 5623
5590 5591 5592 5593 5595 5594 5594 5595 5595 5596 5596 5596 5597 5603 5601 5601 5600 5599 5599 5599 5599 5599 5599 5599 5599 5599 5599 5599 5599 5599 5600 5601 5602 5603 5604 5605 5605 5606 5607 5607 5608 5608 5609 5609
5583 5584 5586 5587 5586 5586 5587 5588 5587 5587 5587 5588 5590 5593 5594 5592 5591 5591 5591 5590 5590 5590 5590 5590 5590 5590 5590 5589 5589 5590 5590 5591 5592 5592 5593 5594 5594 5594 5595 5595 5595 5595 5595 5596
5576 5577 5577 5578 5578 5578 5579 5580 5579 5579 5580 5580 5582 5583 5584 5583 5582 5582 5582 5582 5581 5581 5581 5581 5581 5580 5580 5580 5580 5580 5581 5581 5581 5582 5582 5583 5583 5583 5583 5582 5582 5582 5582 5582
5568 5569 5570 5570 5570 5570 5570 5571 5572 5572 5572 5572 5573 5574 5575 5574 5573 5573 5573 5573 5572 5572 5572 5571 5571 5571 5571 5571 5571 5571 5571 5571 5571 5571 5571 5571 5571 5571 5570 5570 5569 5569 5569 5569
5562 5562 5562 5563 5563 5562 5563 5565 5565 5565 5565 5564 5564 5567 5565 5565 5564 5564 5564 5564 5563 5563 5563 5562 5562 5562 5562 5561 5561 5561 5561 5561 5561 5561 5561 5560 5560 5559 5558 5558 5557 5557 5556 5556
5556 5555 5555 5556 5556 5556 5560 5558 5557 5557 5557 5556 5556 5556 5556 5556 5556 5555 5555 5555 5554 5554 5554 5554 5553 5553 5552 5552 5552 5552 5552 5551 5551 5550 5550 5549 5549 5548 5547 5546 5545 5545 5544 5544
5549 5549 5549 5549 5548 5549 5552 5551 5549 5548 5549 5548 5547 5548 5547 5547 5547 5547 5546 5546 5545 5545 5545 5545 5544 5543 5543 5542 5542 5542 5542 5542 5541 5540 5539 5538 5538 5537 5536 5535 5534 5533 5532 5532
5543 5543 5543 5542 5541 5542 5545 5543 5541 5541 5541 5541 5539 5539 5539 5539 5539 5540 5538 5537 5536 5536 5536 5536 5535 5535 5534 5533 5533 5533 5533 5532 5531 5530 5529 5528 5527 5526 5525 5524 5523 5522 5520 5519
5536 5536 5536 5535 5534 5536 5538 5536 5534 5535 5535 5533 5532 5532 5531 5530 5530 5530 5529 5528 5527 5527 5527 5527 5527 5526 5525 5525 5524 5524 5523 5523 5522 5521 5519 5518 5517 5516 5515 5514 5512 5511 5509 5508
5530 5530 5530 5529 5529 5532 5530 5528 5528 5527 5526 5525 5525 5524 5523 5522 5521 5521 5520 5519 5519 5519 5518 5518 5518 5517 5517 5516 5516 5515 5515 5514 5513 5512 5510 5509 5507 5506 5505 5504 5502 5500 5499 5498
5524 5524 5523 5524 5525 5524 5522 5521 5520 5519 5519 5518 5517 5516 5515 5514 5513 5512 5511 5511 5510 5510 5510 5509 5509 5509 5508 5508 5507 5507 5506 5505 5504 5503 5501 5500 5499 5497 5496 5494 5493 5491 5489 5488
5517 5517 5516 5517 5517 5516 5515 5514 5513 5512 5511 5510 5509 5508 5508 5507 5505 5504 5503 5502 5501 5501 5501 5501 5501 5500 5500 5499 5498 5498 5497 5496 5495 5494 5493 5492 5490 5489 5487 5485 5483 5481 5480 5478
5510 5510 5510 5510 5510 5509 5508 5507 5506 5505 5503 5503 5502 5501 5499 5498 5497 5496 5495 5494 5493 5492 5492 5492 5492 5491 5491 5490 5489 5489 5488 5488 5487 5486 5484 5483 5482 5480 5478 5476 5474 5472 5470 5468
5504 5504 5503 5503 5503 5501 5501 5500 5499 5497 5496 5495 5494 5493 5491 5490 5489 5488 5487 5486 5485 5484 5484 5484 5483 5483 5482 5482 5481 5480 5480 5479 5478 5477 5476 5475 5473 5471 5469 5467 5466 5463 5461 5459